Regional Weather Roundup
Issued by NWS

Home | Current Version | Previous Version | Text Only | Print | Product List | Glossary Off
Versions: 1 2 3 4 5 6 7 8 9 10 11 12 13 14 15 16 17 18 19 20 21 22 23 24 25 26 27 28 29 30 31 32 33 34 35 36 37 38 39 40 41 42 43 44 45 46 47 48 49 50

000
ASUS45 KABQ 071010
RWRNM
NEW MEXICO REGIONAL WEATHER ROUNDUP
NATIONAL WEATHER SERVICE ALBUQUERQUE NM
400 AM MDT TUE JUL 07 2015

NOTE: "FAIR" MEANS FEW OR NO CLOUDS BELOW 12,000 FEET AGL WITH NO
       SIGNIFICANT WEATHER OR OBSTRUCTIONS TO VISION.

      THIS PRODUCT IS RELEASED AS TWO VERSIONS.  ONE VERSION NEAR
      THE TOP OF THE HOUR CONTAINING PRELIMINARY DATA FROM ALBUQUERQUE
      AND OTHER STATIONS.  A FINAL VERSION WITH ADDITIONAL DATA IS
      ISSUED ABOUT 10 MINUTES AFTER THE HOUR.

NMZ501-503-504-510>518-071100-
NORTHWEST PLATEAU/NORTHCENTRAL MOUNTAINS

CITY           SKY/WX    TMP DP  RH WIND       PRES   REMARKS
FARMINGTON     CLEAR     64  55  72 NE5       30.15R
LOS ALAMOS     RAIN      57  57 100 SW6       30.32S
SANTA FE       LGT RAIN  59  56  89 S9        30.26S
TAOS           CLOUDY    57  46  67 CALM      30.30F
ANGEL FIRE     RAIN      52  50  94 CALM      30.38F

$$
NMZ402-403-502-505>509-071100-
WESTCENTRAL MOUNTAINS/SOUTHWEST MOUNTAINS

CITY           SKY/WX    TMP DP  RH WIND       PRES   REMARKS
GALLUP         MOCLDY    57  54  89 CALM      30.22F
GRANTS         MOCLDY    57  57  99 S5        30.28R
SILVER CITY      N/A     68  55  64 NW9       30.16S

$$
NMZ407-409-411-412-071100-
SOUTHERN DESERTS

CITY           SKY/WX    TMP DP  RH WIND       PRES   REMARKS
LORDSBURG      PTSUNNY   73  55  53 W9        30.07S
DEMING         CLEAR     73  57  57 NE8       30.08S
LAS CRUCES     PTCLDY    73  60  64 NW7       30.08S
HOLLOMAN AFB   MOCLDY    72  62  72 NW6       30.04R
ALAMOGORDO     CLOUDY    73  61  64 SW6       30.06R
T OR C         CLEAR     68  59  73 N14       30.12S

$$
NMZ519>523-071100-
CENTRAL VALLEYS/CENTRAL HIGHLANDS

CITY           SKY/WX    TMP DP  RH WIND       PRES   REMARKS
ALBUQUERQUE    RAIN      62  59  90 E10       30.21F
DOUBLE EAGLE   DRIZZLE   58  58  97 E9        30.23F
MORIARTY ARPT  HVY RAIN  59  55  88 NW3       30.31R
CLINES CORNERS LGT RAIN  56  54  93 E15G25    30.30S
BELEN          FAIR      60  59  96 E9        30.21F
SOCORRO        FAIR      66  60  82 N6        30.17S

$$
NMZ524>526-539-540-071100-
SOUTHCENTRAL MOUNTAINS

CITY           SKY/WX    TMP DP  RH WIND       PRES   REMARKS
RUIDOSO        CLOUDY    57  57 100 CALM      30.29F

$$
NMZ527>531-071100-
NORTHEAST HIGHLANDS/NORTHEAST PLAINS

CITY           SKY/WX    TMP DP  RH WIND       PRES   REMARKS
LAS VEGAS      LGT RAIN  55  54  96 NE8       30.31F
RATON          CLOUDY    57  55  93 N3        30.27F FOG
CLAYTON        CLOUDY    59  54  83 NE13      30.22S HAZE

$$
NMZ532>537-071100-
EASTCENTRAL PLAINS

CITY           SKY/WX    TMP DP  RH WIND       PRES   REMARKS
TUCUMCARI      CLOUDY    66  61  84 NE12      30.14F
CANNON AFB     CLOUDY    64  62  93 NE15      30.13S
CLOVIS AIRPORT CLOUDY    64  61  88 NE14        N/A

$$
NMZ028-029-538-071100-
SOUTHEAST PLAINS

CITY           SKY/WX    TMP DP  RH WIND       PRES   REMARKS
ROSWELL        CLOUDY    68  64  87 N10       30.10R
ARTESIA        CLOUDY    68  68 100 N15       30.10R
CARLSBAD       CLOUDY    71  67  87 NW18      30.05R
HOBBS          LGT RAIN  68  68 100 N12G20    30.06R


$$


USA.gov is the U.S. government's official web portal to all federal, state and local government web resources and services.